User: anonymous
Location: Smithers
(54.7670°N, 127.1670°W)
Time: 02:28:47
(UTC-07:00)
Language:

ERBS - Orbit

View from above orbital plane
View from above orbital plane
View from above satellite
View from above satellite

Ground track
Ground track

The orbit data is extracted from the following two-line orbital elements,

1 15354U 84108B   14257.42843266  .00010439  00000-0  37117-3 0  5774
2 15354 057.0134 118.0988 0017631 022.5720 337.6100 15.29463653643277
Epoch (UTC): 14 September 2014 10:16:56
Eccentricity: 0.0017631
inclination: 57.0134°
perigee height: 465 km
apogee height: 489 km
right ascension of ascending node: 118.0988°
argument of perigee: 22.5720°
revolutions per day: 15.29463653
mean anomaly at epoch: 337.6100°
orbit number at epoch: 64327

The dashed part of the orbit path shows where the satellite is in the earth's shadow,  

DLR